STARLINK-5760, 55591

Orbit data source: Space-Track

STARLINK-5760, 55591 is a payload satellite owned by SpaceX/Seattle (US) in LEO that was launched on Sun, 12 Feb 2023 UTC via an FALCON 9 launch vehicle from the Air Force Eastern Test Range (AFETR). Payload-class satellites include a variety of spacecraft equipped with specific instruments for various scientific and technological missions. These include communications satellites like Starlink; space stations such as the ISS; scientific satellites like the Hubble; Earth observation satellites from companies like Planet Labs, Umbra, and HawkEye 360; GPS; miniature CubeSats for education and research; and military/defense satellites.

Loading next visibility...
Identifier
55591, 2023-020Y
Orbit
LEO
Country
Flag of USUS
Related business
Manufacturer
SpaceX/Seattle
Mission
Operational spacecraft
Bus & Motor
STARLINK, Unknown motor
Mass
305 kg wet, ~290 kg dry
Launch date (UTC)
2023-02-12 (3 years ago)
Launch vehicle
FALCON 9
Launch site
Air Force Eastern Test Range (AFETR)
Object type
Payload
Rocket body
Debris
Shape & HBR
Unknown shape, 10.1 m
Radar Cross Section
Large (>1 m²)

Expand to show TLE details & history
Last TLE update: 17 hours ago

TLE from 17 hours ago
0 STARLINK-5760
1 55591U 23020Y   25340.77072300  .00000167  00000-0  27423-4 0  9998
2 55591  43.0022 149.3837 0001223 278.2404  81.8300 15.02529000154945
Epoch: 2025-12-06T18:29Z
TLE epoch observation values (Epoch: 2025-12-06T18:29:50.467Z)
Latitude
0.00002°
Longitude
156.12975°
Altitude
558.759 km
Speed
7.584 km/s
True Right ascension
09h 57m 32s
True Declination
0° 00' 00"
Sunlit
Object was in daylight at epoch
Visualization orbit readout
Latitude
Unknown
Longitude
Unknown
Altitude
Unknown
Speed
Unknown
Apparent Right ascension
Unknown
Apparent Declination
Unknown
Sunlit
N/A
Visualization observer readout
Local Sidereal Time
09:24:47
Azimuth
Unknown
Elevation
Unknown
Doppler factor
Unknown
Orbital elements
Apogee altitude
561.873 km
Perigee altitude
560.176 km
Semi-major axis
6,939.162 km
Eccentricity
0.00012
Inclination
43.0022°
RAAN
149.3837°
Arg. of periapsis
278.2404°
True anomaly
81.84387°
Mean anomaly
81.83°
Eccentric anomaly
81.83694°
Mean motion
3.75476 °/min
Orbital period
95.88 mins
BSTAR
0.000027423
Loading maneuver chart data...
Computing Atmospheric mass density...
Loading historical data...
Loading historical data...
Loading historical data...
Loading historical data...
Loading historical data...
Loading historical data...
Loading historical data...

Documentation

Showing up to 5 results
|